| time (UTC) | temp F | wind direction | speed knots | gust knots | rain 1hr in | rain 24hr in | rain mn in | humidity % | barometer mb |
| 20260906124003 | 69 | 30 | 0.9 | 3.5 | 0.00 | 0.00 | 0.00 | 93 | 1019.6 |
| 20260906123504 | 69 | 33 | 0.9 | 3.5 | 0.00 | 0.00 | 0.00 | 94 | 1019.6 |
| 20260906123004 | 69 | 35 | 0.0 | 3.5 | 0.00 | 0.00 | 0.00 | 93 | 1019.6 |
| 20260906122504 | 68 | 34 | 0.0 | 3.5 | 0.00 | 0.00 | 0.00 | 93 | 1019.6 |
| 20260906121505 | 68 | 34 | 0.9 | 2.6 | 0.00 | 0.00 | 0.00 | 93 | 1019.3 |
| 20260906121004 | 68 | 34 | 0.9 | 2.6 | 0.00 | 0.00 | 0.00 | 93 | 1019.3 |
| 20260906120504 | 68 | 34 | 0.9 | 3.5 | 0.00 | 0.00 | 0.00 | 93 | 1019.2 |
| 20260906120004 | 68 | 34 | 0.9 | 3.5 | 0.00 | 0.00 | 0.00 | 93 | 1019.1 |
| 20260906115504 | 68 | 32 | 0.9 | 2.6 | 0.00 | 0.00 | 0.00 | 92 | 1019.0 |
| 20260906115004 | 68 | 31 | 0.9 | 2.6 | 0.00 | 0.00 | 0.00 | 92 | 1018.9 |
| 20260906114504 | 68 | 31 | 0.9 | 2.6 | 0.00 | 0.00 | 0.00 | 92 | 1018.8 |
| 20260906114004 | 68 | 32 | 0.9 | 3.5 | 0.00 | 0.00 | 0.00 | 92 | 1018.8 |
| 20260906113504 | 68 | 33 | 0.0 | 3.5 | 0.00 | 0.00 | 0.00 | 92 | 1018.7 |
| 20260906113004 | 68 | 32 | 0.0 | 2.6 | 0.00 | 0.00 | 0.00 | 92 | 1018.5 |
| 20260906112504 | 68 | 32 | 0.0 | 2.6 | 0.00 | 0.00 | 0.00 | 92 | 1018.5 |
| 20260906111503 | 69 | 31 | 0.0 | 2.6 | 0.00 | 0.00 | 0.00 | 92 | 1018.5 |
| 20260906111004 | 69 | 31 | 0.9 | 2.6 | 0.00 | 0.00 | 0.00 | 92 | 1018.3 |
| 20260906110504 | 69 | 30 | 0.9 | 2.6 | 0.00 | 0.00 | 0.00 | 92 | 1018.3 |
| 20260906110004 | 69 | 31 | 0.0 | 2.6 | 0.00 | 0.00 | 0.00 | 92 | 1018.3 |
| 20260906105004 | 69 | 32 | 0.9 | 2.6 | 0.00 | 0.00 | 0.00 | 92 | 1018.0 |
| 20260906104504 | 69 | 31 | 0.9 | 3.5 | 0.00 | 0.00 | 0.00 | 92 | 1018.1 |
| 20260906103503 | 69 | 35 | 0.9 | 3.5 | 0.00 | 0.00 | 0.00 | 92 | 1017.9 |
| 20260906103004 | 69 | 36 | 0.9 | 5.2 | 0.00 | 0.00 | 0.00 | 92 | 1017.9 |
| 20260906102504 | 69 | 33 | 0.9 | 5.2 | 0.00 | 0.00 | 0.00 | 92 | 1017.8 |
| 20260906102004 | 70 | 31 | 0.9 | 4.3 | 0.00 | 0.00 | 0.00 | 92 | 1017.9 |
| 20260906101504 | 70 | 36 | 0.9 | 3.5 | 0.00 | 0.00 | 0.00 | 92 | 1017.9 |
| 20260906101004 | 70 | 34 | 0.9 | 4.3 | 0.00 | 0.00 | 0.00 | 91 | 1017.9 |
| 20260906100504 | 70 | 31 | 0.0 | 4.3 | 0.00 | 0.00 | 0.00 | 91 | 1017.8 |
| 20260906095503 | 70 | 28 | 0.9 | 3.5 | 0.00 | 0.00 | 0.00 | 91 | 1017.8 |
| 20260906095004 | 70 | 28 | 0.9 | 3.5 | 0.00 | 0.00 | 0.00 | 91 | 1017.7 |
| 20260906094504 | 70 | 28 | 0.9 | 3.5 | 0.00 | 0.00 | 0.00 | 91 | 1017.6 |
| 20260906094003 | 70 | 27 | 0.9 | 3.5 | 0.00 | 0.00 | 0.00 | 91 | 1017.7 |
| 20260906093504 | 70 | 26 | 0.9 | 2.6 | 0.00 | 0.00 | 0.00 | 91 | 1017.7 |
| 20260906093004 | 70 | 26 | 0.9 | 2.6 | 0.00 | 0.00 | 0.00 | 91 | 1017.6 |
| 20260906092504 | 70 | 26 | 0.9 | 2.6 | 0.00 | 0.00 | 0.00 | 91 | 1017.7 |
| 20260906092004 | 70 | 26 | 0.9 | 2.6 | 0.00 | 0.00 | 0.00 | 90 | 1017.7 |
| 20260906091504 | 70 | 27 | 0.9 | 3.5 | 0.00 | 0.00 | 0.00 | 90 | 1017.6 |
| 20260906091004 | 70 | 35 | 0.9 | 4.3 | 0.00 | 0.00 | 0.00 | 90 | 1017.6 |
| 20260906090504 | 70 | 34 | 0.9 | 4.3 | 0.00 | 0.00 | 0.00 | 90 | 1017.5 |
| 20260906085504 | 70 | 29 | 0.9 | 4.3 | 0.00 | 0.00 | 0.00 | 90 | 1017.5 |
| 20260906085004 | 70 | 29 | 0.9 | 4.3 | 0.00 | 0.00 | 0.00 | 90 | 1017.6 |
| 20260906084504 | 71 | 29 | 0.9 | 5.2 | 0.00 | 0.00 | 0.00 | 90 | 1017.5 |
| 20260906084004 | 71 | 33 | 0.9 | 5.2 | 0.00 | 0.00 | 0.00 | 89 | 1017.5 |
| 20260906083504 | 71 | 35 | 0.0 | 2.6 | 0.00 | 0.00 | 0.00 | 89 | 1017.4 |
| 20260906082504 | 71 | 36 | 0.0 | 2.6 | 0.00 | 0.00 | 0.00 | 89 | 1017.4 |
| 20260906082004 | 71 | 36 | 0.9 | 2.6 | 0.00 | 0.00 | 0.00 | 89 | 1017.5 |
| 20260906081504 | 71 | 35 | 0.9 | 3.5 | 0.00 | 0.00 | 0.00 | 89 | 1017.6 |
| 20260906081004 | 71 | 35 | 0.9 | 3.5 | 0.00 | 0.00 | 0.00 | 89 | 1017.6 |
| 20260906080504 | 71 | 34 | 0.9 | 3.5 | 0.00 | 0.00 | 0.00 | 88 | 1017.6 |
| 20260906080004 | 71 | 34 | 0.9 | 3.5 | 0.00 | 0.00 | 0.00 | 88 | 1017.6 |
| 20260906075504 | 71 | 33 | 0.9 | 4.3 | 0.00 | 0.00 | 0.00 | 88 | 1017.7 |
| 20260906074504 | 72 | 32 | 0.0 | 2.6 | 0.00 | 0.00 | 0.00 | 88 | 1017.8 |
| 20260906073504 | 72 | 32 | 0.9 | 3.5 | 0.00 | 0.00 | 0.00 | 88 | 1017.7 |
| 20260906073003 | 72 | 34 | 0.9 | 2.6 | 0.00 | 0.00 | 0.00 | 88 | 1017.7 |
| 20260906072504 | 72 | 36 | 0.9 | 3.5 | 0.00 | 0.00 | 0.00 | 88 | 1017.8 |
| 20260906072003 | 72 | 34 | 0.9 | 3.5 | 0.00 | 0.00 | 0.00 | 88 | 1017.7 |
| 20260906071504 | 72 | 32 | 0.9 | 3.5 | 0.00 | 0.00 | 0.00 | 88 | 1017.7 |
| 20260906071003 | 72 | 32 | 0.9 | 3.5 | 0.00 | 0.00 | 0.00 | 87 | 1017.8 |
| 20260906065504 | 72 | 29 | 0.9 | 3.5 | 0.00 | 0.00 | 0.00 | 88 | 1017.9 |
| 20260906064504 | 73 | 28 | 0.0 | 1.7 | 0.00 | 0.00 | 0.00 | 88 | 1017.9 |
| 20260906064004 | 73 | 28 | 0.0 | 1.7 | 0.00 | 0.00 | 0.00 | 88 | 1017.8 |
| 20260906063503 | 73 | 28 | 0.0 | 1.7 | 0.00 | 0.00 | 0.00 | 88 | 1017.9 |
| 20260906063004 | 73 | 28 | 0.9 | 1.7 | 0.00 | 0.00 | 0.00 | 87 | 1017.9 |
| 20260906062503 | 73 | 33 | 0.9 | 3.5 | 0.00 | 0.00 | 0.00 | 87 | 1017.9 |
| 20260906061503 | 73 | 40 | 0.9 | 5.2 | 0.00 | 0.00 | 0.00 | 87 | 1018.0 |
| 20260906061004 | 73 | 38 | 0.0 | 5.2 | 0.00 | 0.00 | 0.00 | 87 | 1018.0 |
| 20260906060503 | 73 | 44 | 0.0 | 2.6 | 0.00 | 0.00 | 0.00 | 87 | 1018.0 |
| 20260906060004 | 73 | 43 | 0.9 | 3.5 | 0.00 | 0.00 | 0.00 | 87 | 1017.9 |
| 20260906055004 | 73 | 39 | 0.9 | 2.6 | 0.00 | 0.00 | 0.00 | 86 | 1017.8 |
| 20260906054504 | 73 | 39 | 0.9 | 3.5 | 0.00 | 0.00 | 0.00 | 86 | 1017.7 |
| 20260906054004 | 73 | 40 | 0.0 | 3.5 | 0.00 | 0.00 | 0.00 | 86 | 1017.7 |
| 20260906053003 | 73 | 40 | 0.0 | 1.7 | 0.00 | 0.00 | 0.00 | 86 | 1017.7 |
| 20260906052004 | 73 | 35 | 0.9 | 2.6 | 0.00 | 0.00 | 0.00 | 86 | 1017.6 |
| 20260906051504 | 73 | 34 | 0.9 | 3.5 | 0.00 | 0.00 | 0.00 | 86 | 1017.6 |
| 20260906051004 | 74 | 42 | 0.9 | 4.3 | 0.00 | 0.00 | 0.00 | 86 | 1017.5 |
| 20260906050504 | 74 | 45 | 0.9 | 6.1 | 0.00 | 0.00 | 0.00 | 86 | 1017.5 |
| 20260906050005 | 74 | 51 | 0.9 | 6.1 | 0.00 | 0.00 | 0.00 | 85 | 1017.4 |
| 20260906045504 | 74 | 61 | 0.9 | 4.3 | 0.00 | 0.00 | 0.00 | 85 | 1017.5 |
| 20260906044003 | 74 | 42 | 0.9 | 3.5 | 0.00 | 0.00 | 0.00 | 85 | 1017.3 |
| 20260906043504 | 74 | 29 | 0.9 | 2.6 | 0.00 | 0.00 | 0.00 | 85 | 1017.2 |
| 20260906043004 | 74 | 26 | 0.9 | 2.6 | 0.00 | 0.00 | 0.00 | 85 | 1017.2 |
| 20260906042004 | 74 | 51 | 1.7 | 4.3 | 0.00 | 0.00 | 0.00 | 85 | 1017.0 |
| 20260906041003 | 74 | 68 | 1.7 | 7.0 | 0.00 | 0.00 | 0.00 | 85 | 1017.0 |
| 20260906040503 | 74 | 73 | 1.7 | 5.2 | 0.00 | 0.00 | 0.00 | 85 | 1016.9 |
| 20260906040004 | 74 | 78 | 1.7 | 8.7 | 0.00 | 0.00 | 0.00 | 85 | 1016.8 |
| 20260906035503 | 74 | 71 | 1.7 | 8.7 | 0.00 | 0.00 | 0.00 | 85 | 1016.7 |
| 20260906035004 | 74 | 62 | 1.7 | 5.2 | 0.00 | 0.00 | 0.00 | 85 | 1016.7 |
| 20260906034504 | 74 | 72 | 1.7 | 8.7 | 0.00 | 0.00 | 0.00 | 85 | 1016.5 |
| 20260906034004 | 74 | 74 | 2.6 | 8.7 | 0.00 | 0.00 | 0.00 | 85 | 1016.6 |
| 20260906033503 | 74 | 75 | 2.6 | 8.7 | 0.00 | 0.00 | 0.00 | 85 | 1016.7 |
| 20260906033003 | 74 | 75 | 2.6 | 7.0 | 0.00 | 0.00 | 0.00 | 85 | 1016.7 |
| 20260906032504 | 74 | 76 | 2.6 | 7.0 | 0.00 | 0.00 | 0.00 | 85 | 1016.7 |
| 20260906032003 | 74 | 83 | 2.6 | 7.8 | 0.00 | 0.00 | 0.00 | 85 | 1016.7 |
| 20260906031503 | 74 | 76 | 2.6 | 7.8 | 0.00 | 0.00 | 0.00 | 85 | 1016.8 |
| 20260906031004 | 74 | 59 | 2.6 | 8.7 | 0.00 | 0.00 | 0.00 | 84 | 1016.6 |
| 20260906030503 | 74 | 56 | 1.7 | 8.7 | 0.00 | 0.00 | 0.00 | 85 | 1016.6 |
| 20260906030004 | 74 | 57 | 2.6 | 7.0 | 0.00 | 0.00 | 0.00 | 85 | 1016.7 |
| 20260906025504 | 74 | 61 | 2.6 | 9.6 | 0.00 | 0.00 | 0.00 | 84 | 1016.7 |
| 20260906025003 | 73 | 66 | 3.5 | 11.3 | 0.00 | 0.00 | 0.00 | 84 | 1016.7 |
| 20260906024504 | 74 | 67 | 3.5 | 13.0 | 0.00 | 0.00 | 0.00 | 84 | 1016.7 |
| 20260906024003 | 74 | 61 | 3.5 | 13.0 | 0.00 | 0.00 | 0.00 | 84 | 1016.7 |
| 20260906023504 | 74 | 58 | 2.6 | 12.2 | 0.00 | 0.00 | 0.00 | 84 | 1016.6 |
| 20260906023004 | 74 | 56 | 2.6 | 10.4 | 0.00 | 0.00 | 0.00 | 84 | 1016.7 |
| 20260906022503 | 74 | 50 | 3.5 | 9.6 | 0.00 | 0.00 | 0.00 | 84 | 1016.8 |
| 20260906022003 | 74 | 53 | 3.5 | 11.3 | 0.00 | 0.00 | 0.00 | 84 | 1016.8 |
| 20260906021503 | 74 | 54 | 2.6 | 11.3 | 0.00 | 0.00 | 0.00 | 84 | 1016.8 |
| 20260906021004 | 74 | 50 | 2.6 | 9.6 | 0.00 | 0.00 | 0.00 | 85 | 1016.6 |
| 20260906020504 | 74 | 50 | 1.7 | 8.7 | 0.00 | 0.00 | 0.00 | 84 | 1016.7 |
| 20260906020003 | 74 | 57 | 1.7 | 10.4 | 0.00 | 0.00 | 0.00 | 84 | 1016.6 |
| 20260906015504 | 74 | 55 | 1.7 | 10.4 | 0.00 | 0.00 | 0.00 | 84 | 1016.6 |
| 20260906015004 | 74 | 30 | 1.7 | 8.7 | 0.00 | 0.00 | 0.00 | 84 | 1016.6 |
| 20260906014503 | 74 | 28 | 2.6 | 8.7 | 0.00 | 0.00 | 0.00 | 84 | 1016.6 |
| 20260906014004 | 74 | 18 | 3.5 | 13.9 | 0.00 | 0.00 | 0.00 | 83 | 1016.8 |
| 20260906013503 | 74 | 17 | 2.6 | 13.9 | 0.00 | 0.00 | 0.00 | 83 | 1016.6 |
| 20260906013003 | 74 | 20 | 2.6 | 10.4 | 0.00 | 0.00 | 0.00 | 83 | 1016.6 |
| 20260906012504 | 74 | 26 | 2.6 | 8.7 | 0.00 | 0.00 | 0.00 | 83 | 1016.6 |
| 20260906012004 | 74 | 28 | 2.6 | 9.6 | 0.00 | 0.00 | 0.00 | 83 | 1016.5 |
| 20260906010505 | 75 | 32 | 1.7 | 10.4 | 0.00 | 0.00 | 0.00 | 83 | 1016.6 |
| 20260906010004 | 75 | 29 | 1.7 | 10.4 | 0.00 | 0.00 | 0.00 | 82 | 1016.6 |
| 20260906005505 | 75 | 29 | 2.6 | 8.7 | 0.00 | 0.00 | 0.00 | 82 | 1016.5 |
| 20260906005004 | 76 | 28 | 2.6 | 8.7 | 0.00 | 0.00 | 0.00 | 82 | 1016.5 |
| 20260906004504 | 76 | 30 | 1.7 | 9.6 | 0.00 | 0.00 | 0.00 | 81 | 1016.4 |
| 20260906003505 | 77 | 41 | 1.7 | 5.2 | 0.00 | 0.00 | 0.00 | 80 | 1016.3 |
| 20260906003005 | 77 | 35 | 1.7 | 13.0 | 0.00 | 0.00 | 0.00 | 80 | 1016.2 |
| 20260906002505 | 77 | 38 | 1.7 | 13.0 | 0.00 | 0.00 | 0.00 | 80 | 1016.2 |
| 20260906001505 | 78 | 51 | 1.7 | 8.7 | 0.00 | 0.00 | 0.00 | 79 | 1016.0 |
| 20260906001004 | 78 | 54 | 2.6 | 9.6 | 0.00 | 0.00 | 0.00 | 78 | 1015.9 |
| 20260906000505 | 78 | 53 | 2.6 | 9.6 | 0.00 | 0.00 | 0.00 | 78 | 1015.8 |
| 20260906000004 | 79 | 56 | 2.6 | 9.6 | 0.00 | 0.00 | 0.00 | 77 | 1015.6 |
| 20260905235505 | 79 | 59 | 2.6 | 8.7 | 0.00 | 0.00 | 0.00 | 77 | 1015.4 |
| 20260905235004 | 80 | 61 | 2.6 | 8.7 | 0.00 | 0.00 | 0.00 | 77 | 1015.4 |
| 20260905234505 | 80 | 61 | 2.6 | 8.7 | 0.00 | 0.00 | 0.00 | 77 | 1015.4 |
| 20260905234004 | 80 | 69 | 2.6 | 8.7 | 0.00 | 0.00 | 0.00 | 76 | 1015.4 |
| 20260905233505 | 81 | 70 | 1.7 | 8.7 | 0.00 | 0.00 | 0.00 | 76 | 1015.3 |
| 20260905232504 | 81 | 55 | 1.7 | 6.1 | 0.00 | 0.00 | 0.00 | 75 | 1015.4 |
| 20260905232005 | 81 | 68 | 2.6 | 10.4 | 0.00 | 0.00 | 0.00 | 75 | 1015.4 |
| 20260905231005 | 81 | 71 | 1.7 | 8.7 | 0.00 | 0.00 | 0.00 | 74 | 1015.4 |
| 20260905230504 | 81 | 53 | 1.7 | 8.7 | 0.00 | 0.00 | 0.00 | 74 | 1015.1 |
| 20260905230005 | 81 | 26 | 1.7 | 4.3 | 0.00 | 0.00 | 0.00 | 73 | 1015.1 |
| 20260905225505 | 81 | 22 | 1.7 | 6.1 | 0.00 | 0.00 | 0.00 | 72 | 1015.0 |
| 20260905225004 | 82 | 26 | 1.7 | 6.1 | 0.00 | 0.00 | 0.00 | 73 | 1015.1 |
| 20260905224505 | 82 | 40 | 1.7 | 10.4 | 0.00 | 0.00 | 0.00 | 73 | 1015.0 |
| 20260905224004 | 82 | 45 | 1.7 | 10.4 | 0.00 | 0.00 | 0.00 | 73 | 1014.9 |
| 20260905223504 | 82 | 35 | 1.7 | 7.0 | 0.00 | 0.00 | 0.00 | 74 | 1014.8 |
| 20260905222504 | 82 | 12 | 1.7 | 7.8 | 0.00 | 0.00 | 0.00 | 73 | 1015.0 |
| 20260905222005 | 81 | 11 | 1.7 | 7.8 | 0.00 | 0.00 | 0.00 | 73 | 1014.9 |
| 20260905221505 | 82 | 26 | 1.7 | 6.1 | 0.00 | 0.00 | 0.00 | 74 | 1014.9 |
| 20260905220004 | 82 | 43 | 1.7 | 7.8 | 0.00 | 0.00 | 0.00 | 75 | 1014.7 |
| 20260905215005 | 81 | 25 | 1.7 | 5.2 | 0.00 | 0.00 | 0.00 | 76 | 1014.9 |
| 20260905214504 | 81 | 12 | 2.6 | 9.6 | 0.00 | 0.00 | 0.00 | 76 | 1015.0 |
| 20260905213004 | 82 | 23 | 2.6 | 7.8 | 0.00 | 0.00 | 0.00 | 75 | 1015.0 |
| 20260905212004 | 82 | 38 | 2.6 | 7.8 | 0.00 | 0.00 | 0.00 | 76 | 1015.0 |
| 20260905211505 | 82 | 31 | 2.6 | 7.8 | 0.00 | 0.00 | 0.00 | 75 | 1015.0 |
| 20260905210504 | 82 | 44 | 2.6 | 8.7 | 0.00 | 0.00 | 0.00 | 75 | 1015.1 |
| 20260905210005 | 82 | 28 | 2.6 | 8.7 | 0.00 | 0.00 | 0.00 | 75 | 1015.0 |
| 20260905205504 | 82 | 24 | 2.6 | 8.7 | 0.00 | 0.00 | 0.00 | 75 | 1015.1 |
| 20260905205004 | 82 | 32 | 2.6 | 8.7 | 0.00 | 0.00 | 0.00 | 75 | 1015.1 |
| 20260905204504 | 82 | 20 | 2.6 | 7.8 | 0.00 | 0.00 | 0.00 | 76 | 1015.2 |
| 20260905204005 | 82 | 20 | 2.6 | 10.4 | 0.00 | 0.00 | 0.00 | 76 | 1015.3 |
| 20260905202505 | 82 | 17 | 1.7 | 9.6 | 0.00 | 0.00 | 0.00 | 76 | 1015.3 |
| 20260905202004 | 82 | 9 | 2.6 | 7.0 | 0.00 | 0.00 | 0.00 | 76 | 1015.3 |
| 20260905201504 | 83 | 17 | 2.6 | 7.8 | 0.00 | 0.00 | 0.00 | 75 | 1015.2 |
| 20260905201005 | 83 | 24 | 2.6 | 10.4 | 0.00 | 0.00 | 0.00 | 75 | 1015.2 |
| 20260905200504 | 83 | 28 | 2.6 | 10.4 | 0.00 | 0.00 | 0.00 | 76 | 1015.1 |
| 20260905200005 | 84 | 28 | 1.7 | 10.4 | 0.00 | 0.00 | 0.00 | 75 | 1015.2 |
| 20260905195504 | 84 | 17 | 1.7 | 7.0 | 0.00 | 0.00 | 0.00 | 74 | 1015.2 |
| 20260905195004 | 83 | 8 | 2.6 | 7.0 | 0.00 | 0.00 | 0.00 | 74 | 1015.1 |
| 20260905194504 | 84 | 15 | 2.6 | 7.8 | 0.00 | 0.00 | 0.00 | 74 | 1015.0 |
| 20260905194004 | 85 | 22 | 2.6 | 9.6 | 0.00 | 0.00 | 0.00 | 71 | 1015.0 |
| 20260905193505 | 86 | 29 | 2.6 | 9.6 | 0.00 | 0.00 | 0.00 | 71 | 1015.1 |
| 20260905193004 | 85 | 19 | 2.6 | 13.0 | 0.00 | 0.00 | 0.00 | 74 | 1015.0 |
| 20260905192504 | 86 | 15 | 2.6 | 13.0 | 0.00 | 0.00 | 0.00 | 70 | 1015.0 |
| 20260905192005 | 86 | 16 | 2.6 | 7.8 | 0.00 | 0.00 | 0.00 | 74 | 1015.1 |
| 20260905191504 | 85 | 10 | 2.6 | 8.7 | 0.00 | 0.00 | 0.00 | 73 | 1015.1 |
| 20260905190504 | 86 | 22 | 2.6 | 7.8 | 0.00 | 0.00 | 0.00 | 72 | 1015.1 |
| 20260905190004 | 86 | 19 | 2.6 | 7.8 | 0.00 | 0.00 | 0.00 | 72 | 1015.1 |
| 20260905185504 | 86 | 14 | 2.6 | 7.8 | 0.00 | 0.00 | 0.00 | 73 | 1015.1 |
| 20260905185004 | 86 | 24 | 1.7 | 6.1 | 0.00 | 0.00 | 0.00 | 73 | 1015.2 |
| 20260905184004 | 86 | 12 | 2.6 | 5.2 | 0.00 | 0.00 | 0.00 | 72 | 1015.1 |
| 20260905183504 | 86 | 29 | 2.6 | 8.7 | 0.00 | 0.00 | 0.00 | 70 | 1015.1 |
| 20260905183005 | 88 | 45 | 1.7 | 8.7 | 0.00 | 0.00 | 0.00 | 69 | 1015.2 |
| 20260905182505 | 87 | 29 | 1.7 | 5.2 | 0.00 | 0.00 | 0.00 | 71 | 1015.2 |
| 20260905182004 | 87 | 29 | 1.7 | 4.3 | 0.00 | 0.00 | 0.00 | 72 | 1015.2 |
| 20260905181504 | 86 | 52 | 1.7 | 4.3 | 0.00 | 0.00 | 0.00 | 73 | 1015.2 |
| 20260905181004 | 86 | 41 | 1.7 | 7.0 | 0.00 | 0.00 | 0.00 | 72 | 1015.2 |
| 20260905180504 | 87 | 19 | 1.7 | 7.0 | 0.00 | 0.00 | 0.00 | 74 | 1015.3 |
| 20260905180005 | 85 | 31 | 1.7 | 5.2 | 0.00 | 0.00 | 0.00 | 72 | 1015.2 |
| 20260905175504 | 87 | 44 | 1.7 | 5.2 | 0.00 | 0.00 | 0.00 | 70 | 1015.3 |
| 20260905175005 | 86 | 26 | 1.7 | 8.7 | 0.00 | 0.00 | 0.00 | 72 | 1015.2 |
| 20260905174504 | 86 | 26 | 1.7 | 8.7 | 0.00 | 0.00 | 0.00 | 74 | 1015.1 |
| 20260905174004 | 86 | 34 | 1.7 | 4.3 | 0.00 | 0.00 | 0.00 | 73 | 1015.2 |
| 20260905173504 | 86 | 21 | 1.7 | 4.3 | 0.00 | 0.00 | 0.00 | 72 | 1015.2 |
| 20260905173004 | 86 | 12 | 0.9 | 5.2 | 0.00 | 0.00 | 0.00 | 74 | 1015.2 |
| 20260905172505 | 86 | 23 | 1.7 | 5.2 | 0.00 | 0.00 | 0.00 | 73 | 1015.2 |
| 20260905172004 | 86 | 31 | 1.7 | 5.2 | 0.00 | 0.00 | 0.00 | 75 | 1015.3 |
| 20260905171005 | 86 | 13 | 2.6 | 5.2 | 0.00 | 0.00 | 0.00 | 72 | 1015.2 |
| 20260905170504 | 86 | 37 | 2.6 | 7.0 | 0.00 | 0.00 | 0.00 | 74 | 1015.4 |
| 20260905165504 | 86 | 30 | 1.7 | 7.0 | 0.00 | 0.00 | 0.00 | 74 | 1015.4 |
| 20260905165004 | 86 | 19 | 1.7 | 7.0 | 0.00 | 0.00 | 0.00 | 74 | 1015.4 |
| 20260905164004 | 87 | 60 | 1.7 | 7.0 | 0.00 | 0.00 | 0.00 | 74 | 1015.6 |
| 20260905163504 | 86 | 62 | 1.7 | 7.0 | 0.00 | 0.00 | 0.00 | 75 | 1015.6 |
| 20260905163004 | 87 | 73 | 1.7 | 7.0 | 0.00 | 0.00 | 0.00 | 73 | 1015.5 |
| 20260905162005 | 85 | 10 | 1.7 | 4.3 | 0.00 | 0.00 | 0.00 | 77 | 1015.5 |
| 20260905161504 | 85 | 16 | 1.7 | 5.2 | 0.00 | 0.00 | 0.00 | 75 | 1015.5 |
| 20260905161004 | 84 | 28 | 1.7 | 5.2 | 0.00 | 0.00 | 0.00 | 77 | 1015.6 |
| 20260905160004 | 84 | 34 | 1.7 | 4.3 | 0.00 | 0.00 | 0.00 | 77 | 1015.6 |
| 20260905155504 | 84 | 28 | 1.7 | 7.8 | 0.00 | 0.00 | 0.00 | 78 | 1015.6 |
| 20260905155004 | 84 | 12 | 1.7 | 7.8 | 0.00 | 0.00 | 0.00 | 78 | 1015.5 |
| 20260905154504 | 83 | 14 | 2.6 | 7.0 | 0.00 | 0.00 | 0.00 | 79 | 1015.4 |
| 20260905154005 | 83 | 21 | 2.6 | 7.8 | 0.00 | 0.00 | 0.00 | 80 | 1015.4 |
| 20260905153504 | 82 | 17 | 2.6 | 7.8 | 0.00 | 0.00 | 0.00 | 80 | 1015.4 |
| 20260905153004 | 82 | 50 | 2.6 | 9.6 | 0.00 | 0.00 | 0.00 | 80 | 1015.4 |
| 20260905152004 | 82 | 22 | 2.6 | 9.6 | 0.00 | 0.00 | 0.00 | 83 | 1015.4 |
| 20260905151504 | 81 | 29 | 1.7 | 8.7 | 0.00 | 0.00 | 0.00 | 83 | 1015.4 |
| 20260905151005 | 81 | 24 | 1.7 | 7.0 | 0.00 | 0.00 | 0.00 | 83 | 1015.3 |
| 20260905150504 | 80 | 18 | 1.7 | 6.1 | 0.00 | 0.00 | 0.00 | 85 | 1015.2 |
| 20260905150004 | 80 | 35 | 1.7 | 7.0 | 0.00 | 0.00 | 0.00 | 85 | 1015.2 |
| 20260905145504 | 80 | 40 | 1.7 | 7.0 | 0.00 | 0.00 | 0.00 | 85 | 1015.2 |
| 20260905145005 | 80 | 32 | 1.7 | 7.0 | 0.00 | 0.00 | 0.00 | 85 | 1015.0 |
| 20260905144504 | 80 | 32 | 1.7 | 7.8 | 0.00 | 0.00 | 0.00 | 85 | 1015.0 |
| 20260905144005 | 80 | 30 | 1.7 | 7.8 | 0.00 | 0.00 | 0.00 | 85 | 1015.0 |
| 20260905143504 | 80 | 16 | 1.7 | 5.2 | 0.00 | 0.00 | 0.00 | 87 | 1015.0 |
| 20260905143004 | 79 | 26 | 1.7 | 7.0 | 0.00 | 0.00 | 0.00 | 88 | 1015.0 |
| 20260905142504 | 79 | 31 | 1.7 | 8.7 | 0.00 | 0.00 | 0.00 | 88 | 1015.0 |
| 20260905142004 | 79 | 28 | 1.7 | 9.6 | 0.00 | 0.00 | 0.00 | 88 | 1014.9 |
| 20260905141504 | 80 | 34 | 1.7 | 9.6 | 0.00 | 0.00 | 0.00 | 89 | 1014.8 |
| 20260905141004 | 80 | 42 | 1.7 | 5.2 | 0.00 | 0.00 | 0.00 | 90 | 1014.8 |
| 20260905140504 | 79 | 43 | 1.7 | 6.1 | 0.00 | 0.00 | 0.00 | 92 | 1014.7 |
| 20260905135504 | 78 | 29 | 1.7 | 7.0 | 0.00 | 0.00 | 0.00 | 94 | 1014.5 |
| 20260905135004 | 78 | 29 | 1.7 | 7.0 | 0.00 | 0.00 | 0.00 | 94 | 1014.4 |
| 20260905134504 | 78 | 32 | 1.7 | 5.2 | 0.00 | 0.00 | 0.00 | 94 | 1014.5 |
| 20260905134005 | 77 | 39 | 0.9 | 5.2 | 0.00 | 0.00 | 0.00 | 94 | 1014.4 |
| 20260905133504 | 77 | 43 | 0.9 | 2.6 | 0.00 | 0.00 | 0.00 | 94 | 1014.6 |
| 20260905133004 | 77 | 24 | 0.9 | 4.3 | 0.00 | 0.00 | 0.00 | 94 | 1014.6 |
| 20260905132504 | 77 | 9 | 0.9 | 4.3 | 0.00 | 0.00 | 0.00 | 94 | 1014.7 |
| 20260905132004 | 77 | 1 | 0.9 | 4.3 | 0.00 | 0.00 | 0.00 | 94 | 1014.8 |
| 20260905131504 | 77 | 13 | 0.9 | 3.5 | 0.00 | 0.00 | 0.00 | 94 | 1014.9 |
| 20260905131004 | 77 | 17 | 0.0 | 2.6 | 0.00 | 0.00 | 0.00 | 94 | 1014.8 |
| 20260905130504 | 77 | 25 | 0.9 | 2.6 | 0.00 | 0.00 | 0.00 | 94 | 1014.5 |
| 20260905130004 | 77 | 27 | 0.9 | 4.3 | 0.00 | 0.00 | 0.00 | 94 | 1014.3 |
| 20260905125504 | 77 | 32 | 0.9 | 4.3 | 0.00 | 0.00 | 0.00 | 94 | 1014.2 |
| 20260905124504 | 76 | 228 | 0.0 | 3.5 | 0.00 | 0.00 | 0.00 | 95 | 1014.1 |